Regional Weather Roundup
Issued by NWS Cleveland, OH

Home | Current Version | Previous Version | Graphics & Text | Print | Product List | Glossary On
Versions: 1 2 3 4 5 6 7 8 9 10 11 12 13 14 15 16 17 18 19 20 21 22 23 24 25 26 27 28 29 30 31 32 33 34 35 36 37 38 39 40 41 42 43 44 45 46 47 48 49 50
032
ASUS41 KCLE 241100
RWRCLE
OHIO REGIONAL WEATHER ROUNDUP
NATIONAL WEATHER SERVICE WILMINGTON, OH
700 AM EDT MON APR 24 2017

NOTE: "FAIR" INDICATES FEW OR NO CLOUDS BELOW 12,000 FEET WITH NO
SIGNIFICANT WEATHER AND/OR OBSTRUCTIONS TO VISIBILITY.

OHZ001>008-015>018-024>027-034-035-043-044-241200-
   NORTHWEST OHIO

CITY           SKY/WX    TMP DP  RH WIND       PRES   REMARKS
DEFIANCE       FAIR      40  32  73 NE6       30.04R
FINDLAY        FAIR      44  28  53 NE10      30.00S
TOLEDO EXPRESS FAIR      41  39  93 N6        30.05R
TOLEDO EXEC    FAIR      46  44  93 N7        30.05R FOG
LIMA           FAIR      42  30  62 E6        29.99S
$$

OHZ009>014-019>023-028>033-038-089-241200-
   NORTHEAST OHIO

CITY           SKY/WX    TMP DP  RH WIND       PRES   REMARKS
CLE-HOPKINS    FAIR      47  33  58 NE5       30.05S
CLE-LAKEFRONT  FAIR      49  35  58 E6        30.03S
CUY CO. ARPT   PTCLDY    41  30  65 E7        30.04
LORAIN-ELYRIA  FAIR      40  27  59 CALM      30.04R
ASHTABULA      FAIR      37  30  75 NE3       30.07R
AKRON-CANTON   FAIR      42  31  64 NE6       30.03R
WOOSTER        NOT AVBL
MANSFIELD      FAIR      46  29  51 E8        30.01R
YOUNGSTOWN     FAIR      43  31  62 E9        30.05R
$$

OHZ042-051>053-060>062-070>072-077>081-241200-
  SOUTHWEST OHIO

CITY           SKY/WX    TMP DP  RH WIND       PRES   REMARKS
CINC-COVINGTON FAIR      50  37  61 NE9       29.92R
CINC-LUNKEN    FAIR      46  41  82 E3        29.94R
HAMILTON       FAIR      42  39  89 CALM      29.95S
DAYTON         NOT AVBL
WRIGHT-PAT AFB FAIR      40  35  82 CALM      29.96R
DAYTON GENERAL FAIR      43  36  76 NE7       29.94S
WILMINGTON     FAIR      43  38  82 NE12      29.93R
$$

OHZ036-037-039>041-045>050-054>059-063>069-073>076-082>088-241200-
  CENTRAL AND SOUTHEAST OHIO

CITY           SKY/WX    TMP DP  RH WIND       PRES   REMARKS
COLUMBUS       FAIR      46  35  65 NE6       29.97R
OSU AIRPORT    FAIR      43  34  70 N6        29.97R
BOLTON FIELD   NOT AVBL
RICKENBACK AFB NOT AVBL
NEWARK         FAIR      45  35  68 N3        29.97R
MARION         FAIR      39  28  64 E3        30.00R
LANCASTER      FAIR      46  37  71 NW3       29.96R
ZANESVILLE     FAIR      47  34  60 N6        29.98R
NEW PHILLY     FAIR      40  38  93 CALM      30.02R
$$




USA.gov is the U.S. government's official web portal to all federal, state and local government web resources and services.